This is the latest recevied weather packets stored in our database for station/object K7KAZ. If no packets are shown the sender has not sent any weather packets the latest 10 day(s).
| Time | Temp. | Humidity | Pressure | Rain* | Wind** | Luminosity | Snow |
|---|---|---|---|---|---|---|---|
| 1777822024 | 27.22° C | 32% | 1014.7 hPa | 0 mm | - | 174 W/m² | - |
| 1777821722 | 26.67° C | 32% | 1014.4 hPa | 0 mm | - | 164 W/m² | - |
| 1777821419 | 26.67° C | 32% | 1014.6 hPa | 0 mm | - | 185 W/m² | - |
| 1777821116 | 26.67° C | 32% | 1014.6 hPa | 0 mm | - | 176 W/m² | - |
| 1777820813 | 26.67° C | 32% | 1014.5 hPa | 0 mm | - | 160 W/m² | - |
| 1777820509 | 26.67° C | 32% | 1014.5 hPa | 0 mm | - | 159 W/m² | - |
| 1777820206 | 26.67° C | 32% | 1014.5 hPa | 0 mm | - | 147 W/m² | - |
| 1777819903 | 26.67° C | 33% | 1014.4 hPa | 0 mm | - | 124 W/m² | - |
| 1777819600 | 26.67° C | 32% | 1014.3 hPa | 0 mm | - | 122 W/m² | - |
| 1777819298 | 26.11° C | 32% | 1014.4 hPa | 0 mm | - | 111 W/m² | - |
| 1777818994 | 26.11° C | 32% | 1014.4 hPa | 0 mm | - | 102 W/m² | - |
| 1777818692 | 26.11° C | 32% | 1014.4 hPa | 0 mm | - | 105 W/m² | - |
| 1777818388 | 26.11° C | 32% | 1014.3 hPa | 0 mm | - | 109 W/m² | - |
| 1777818085 | 26.11° C | 32% | 1014.2 hPa | 0 mm | - | 98 W/m² | - |
| 1777817781 | 26.11° C | 33% | 1014.3 hPa | 0 mm | - | 86 W/m² | - |
| 1777817480 | 25.56° C | 33% | 1014.6 hPa | 0 mm | - | 89 W/m² | - |
| 1777817175 | 25.56° C | 33% | 1014.5 hPa | 0 mm | - | 93 W/m² | - |
| 1777816873 | 25.56° C | 33% | 1014.6 hPa | 0 mm | - | 81 W/m² | - |
| 1777816570 | 25.56° C | 33% | 1014.5 hPa | 0 mm | - | 75 W/m² | - |
| 1777816267 | 25° C | 33% | 1014.4 hPa | 0 mm | - | 65 W/m² | - |
| 1777815964 | 25° C | 33% | 1014.5 hPa | 0 mm | - | 55 W/m² | - |
| 1777815661 | 25° C | 33% | 1014.3 hPa | 0 mm | - | 45 W/m² | - |
| 1777815359 | 25° C | 33% | 1014.3 hPa | 0 mm | - | 39 W/m² | - |
| 1777815055 | 25° C | 33% | 1014 hPa | 0 mm | - | 32 W/m² | - |
| 1777814752 | 25° C | 33% | 1014.3 hPa | 0 mm | - | 29 W/m² | - |
* Rain latest hour (hover to see other rain measurements)
** Current wind speed in m/s (hover to see current wind gust speed)